Date String (YYYY-MM-DD hh:mm:ss) UTC,Instrument flags,Ambient pressure (hPa),Sample flow (lpm),Bypass flow (lpm),Sample temperature (°C),Ambient temperature (°C),ASC tube jacket temperature (°C),LED temperature (°C),Box temperature (°C),Sample RH (%),Span deviation,Mass concentration (μg/m³),Mass concentration (μg/m³),Mass concentration (μg/m³)
DateTimeUTC,F1_M11,P_M11,Q1_M11,Q2_M11,T1_M11,T2_M11,T3_M11,T4_M11,T5_M11,U1_M11,ZSPAN_M11,X0_M11,X2_M11,X1_M11
2022-04-09 16:00:00,,0818.4,5.00,0.00,27.9,27.0,00.0,36.7,29.8,06.8,0000.0,0008.83,0003.51,0002.36
2022-04-09 16:01:00,,0818.3,4.99,0.00,27.9,27.0,00.0,36.7,29.7,06.9,0000.0,0008.92,0003.49,0002.38
2022-04-09 16:02:00,,0818.3,5.00,0.00,27.9,27.0,00.0,36.7,29.7,06.6,0000.0,0008.63,0003.49,0002.40
2022-04-09 16:03:00,,0818.4,5.02,0.00,27.9,27.0,00.0,36.7,29.7,06.6,0000.0,0008.46,0003.48,0002.39
2022-04-09 16:04:00,,0818.3,4.98,0.00,27.9,27.0,00.0,36.7,29.7,06.8,0000.0,0008.07,0003.49,0002.41
2022-04-09 16:05:00,,0818.3,5.01,0.00,27.9,27.0,00.0,36.7,29.7,06.8,0000.0,0008.71,0003.48,0002.40
2022-04-09 16:06:00,,0818.2,5.00,0.00,27.9,27.0,00.0,36.8,29.7,06.8,0000.0,0008.86,0003.44,0002.38
2022-04-09 16:07:00,,0818.2,5.00,0.00,27.9,27.1,00.0,36.8,29.8,06.9,0000.0,0009.04,0003.41,0002.37
2022-04-09 16:08:00,,0818.2,4.99,0.00,28.0,27.1,00.0,36.8,29.8,06.9,0000.0,0009.03,0003.40,0002.37
2022-04-09 16:09:00,,0818.2,4.99,0.00,28.0,27.1,00.0,36.8,29.8,06.9,0000.0,0009.04,0003.41,0002.37
2022-04-09 16:10:00,,0818.2,5.00,0.00,28.0,27.2,00.0,36.8,29.8,07.0,0000.0,0009.21,0003.41,0002.37
2022-04-09 16:11:00,,0818.1,5.00,0.00,28.0,27.2,00.0,36.8,29.9,07.3,0000.0,0009.42,0003.39,0002.39
2022-04-09 16:12:00,,0818.2,5.01,0.00,28.1,27.2,00.0,36.8,29.9,07.1,0000.0,0009.25,0003.42,0002.45
2022-04-09 16:13:00,,0818.2,5.00,0.00,28.1,27.3,00.0,36.9,30.0,07.1,0000.0,0009.31,0003.46,0002.49
2022-04-09 16:14:00,,0818.2,4.99,0.00,28.1,27.3,00.0,36.9,30.0,06.8,0000.0,0009.17,0003.48,0002.57
2022-04-09 16:15:00,,0818.2,5.00,0.00,28.1,27.3,00.0,36.9,30.0,06.7,0000.0,0009.41,0003.58,0002.78
2022-04-09 16:16:00,,0818.0,5.00,0.00,28.2,27.4,00.0,36.9,30.0,06.8,0000.0,0009.07,0003.66,0002.93
2022-04-09 16:17:00,,0818.1,5.00,0.00,28.2,27.4,00.0,36.9,30.0,07.0,0000.0,0008.69,0003.69,0003.00
2022-04-09 16:18:00,,0818.0,5.02,0.00,28.2,27.4,00.0,37.0,30.1,07.0,0000.0,0008.14,0003.71,0003.05
2022-04-09 16:19:00,,0818.0,5.01,0.00,28.2,27.4,00.0,37.0,30.1,07.0,0000.0,0008.43,0003.72,0003.07
2022-04-09 16:20:00,,0818.0,4.99,0.00,28.2,27.4,00.0,37.0,30.1,06.8,0000.0,0008.52,0003.74,0003.10
2022-04-09 16:21:00,,0818.0,4.99,0.00,28.3,27.5,00.0,37.0,30.1,07.0,0000.0,0008.43,0003.76,0003.12
2022-04-09 16:22:00,,0818.1,4.99,0.00,28.3,27.5,00.0,37.1,30.1,06.9,0000.0,0008.01,0003.81,0003.14
2022-04-09 16:23:00,,0818.0,5.01,0.00,28.3,27.5,00.0,37.1,30.2,06.8,0000.0,0007.99,0003.80,0003.12
2022-04-09 16:24:00,,0818.0,4.99,0.00,28.3,27.5,00.0,37.1,30.2,07.0,0000.0,0007.94,0003.78,0003.09
2022-04-09 16:25:00,,0818.0,4.99,0.00,28.3,27.6,00.0,37.1,30.2,07.1,0000.0,0007.94,0003.75,0003.03
2022-04-09 16:26:00,,0818.0,5.00,0.00,28.4,27.6,00.0,37.1,30.2,07.2,0000.0,0007.71,0003.67,0002.85
2022-04-09 16:27:00,,0818.0,5.02,0.00,28.4,27.6,00.0,37.1,30.2,07.6,0000.0,0007.50,0003.59,0002.72
2022-04-09 16:28:00,,0818.0,5.00,0.00,28.4,27.6,00.0,37.2,30.2,07.8,0000.0,0007.45,0003.58,0002.68
2022-04-09 16:29:00,,0818.0,5.00,0.00,28.4,27.6,00.0,37.2,30.3,07.8,0000.0,0007.50,0003.59,0002.66
2022-04-09 16:30:00,,0818.0,4.99,0.00,28.4,27.7,00.0,37.2,30.3,07.3,0000.0,0007.01,0003.60,0002.68
2022-04-09 16:31:00,,0818.0,4.99,0.00,28.5,27.7,00.0,37.2,30.3,07.3,0000.0,0007.14,0003.60,0002.67
2022-04-09 16:32:00,,0817.9,5.01,0.00,28.5,27.7,00.0,37.3,30.3,07.6,0000.0,0007.07,0003.57,0002.63
2022-04-09 16:33:00,,0818.0,5.01,0.00,28.5,27.7,00.0,37.3,30.3,07.7,0000.0,0007.11,0003.55,0002.57
2022-04-09 16:34:00,,0817.9,4.99,0.00,28.5,27.7,00.0,37.3,30.3,07.4,0000.0,0007.14,0003.50,0002.52
2022-04-09 16:35:00,,0817.8,4.99,0.00,28.5,27.7,00.0,37.3,30.4,07.1,0000.0,0007.14,0003.47,0002.53
2022-04-09 16:36:00,,0817.9,5.01,0.00,28.5,27.8,00.0,37.3,30.4,07.2,0000.0,0007.33,0003.51,0002.56
2022-04-09 16:37:00,,0817.8,5.01,0.00,28.6,27.8,00.0,37.4,30.4,07.3,0000.0,0007.60,0003.50,0002.56
2022-04-09 16:38:00,,0817.8,5.00,0.00,28.6,27.8,00.0,37.4,30.4,07.2,0000.0,0007.84,0003.51,0002.55
2022-04-09 16:39:00,,0817.8,4.99,0.00,28.6,27.8,00.0,37.4,30.4,07.4,0000.0,0008.07,0003.47,0002.53
2022-04-09 16:40:00,,0817.7,5.00,0.00,28.6,27.9,00.0,37.4,30.5,07.3,0000.0,0008.49,0003.46,0002.55
2022-04-09 16:41:00,,0817.7,5.01,0.00,28.7,27.9,00.0,37.4,30.5,07.3,0000.0,0008.76,0003.47,0002.53
2022-04-09 16:42:00,,0817.7,5.02,0.00,28.7,27.9,00.0,37.4,30.5,07.2,0000.0,0008.67,0003.44,0002.53
2022-04-09 16:43:00,,0817.7,5.00,0.00,28.7,27.9,00.0,37.5,30.6,07.1,0000.0,0008.70,0003.45,0002.51
2022-04-09 16:44:00,,0817.7,4.99,0.00,28.7,27.9,00.0,37.5,30.6,07.1,0000.0,0008.70,0003.42,0002.50
2022-04-09 16:45:00,,0817.7,5.01,0.00,28.7,28.0,00.0,37.5,30.6,07.1,0000.0,0009.04,0003.44,0002.49
2022-04-09 16:46:00,,0817.7,4.99,0.00,28.8,28.0,00.0,37.5,30.6,07.2,0000.0,0009.76,0003.42,0002.45
2022-04-09 16:47:00,,0817.7,4.99,0.00,28.8,28.0,00.0,37.5,30.6,07.2,0000.0,0010.18,0003.40,0002.41
2022-04-09 16:48:00,,0817.7,5.01,0.00,28.8,28.0,00.0,37.6,30.7,06.9,0000.0,0009.98,0003.39,0002.38
2022-04-09 16:49:00,,0817.7,4.99,0.00,28.8,28.0,00.0,37.6,30.7,06.9,0000.0,0009.86,0003.43,0002.36
2022-04-09 16:50:00,,0817.7,4.99,0.00,28.9,28.0,00.0,37.6,30.7,06.6,0000.0,0009.80,0003.45,0002.32
2022-04-09 16:51:00,,0817.7,5.01,0.00,28.9,28.0,00.0,37.6,30.7,06.7,0000.0,0009.38,0003.44,0002.26
2022-04-09 16:52:00,,0817.7,4.98,0.00,28.9,28.1,00.0,37.6,30.7,06.6,0000.0,0009.16,0003.41,0002.21
2022-04-09 16:53:00,,0817.7,5.01,0.00,28.9,28.1,00.0,37.7,30.8,06.8,0000.0,0009.21,0003.41,0002.18
2022-04-09 16:54:00,,0817.6,5.00,0.00,29.0,28.1,00.0,37.7,30.8,06.9,0000.0,0009.76,0003.38,0002.15
2022-04-09 16:55:00,,0817.5,4.99,0.00,29.0,28.1,00.0,37.7,30.8,06.7,0000.0,0009.91,0003.39,0002.15
2022-04-09 16:56:00,,0817.4,5.02,0.00,29.0,28.1,00.0,37.7,30.8,06.7,0000.0,0009.46,0003.40,0002.13
2022-04-09 16:57:00,,0817.4,5.00,0.00,29.0,28.1,00.0,37.7,30.8,06.6,0000.0,0008.99,0003.46,0002.12
2022-04-09 16:58:00,,0817.6,4.99,0.00,29.0,28.1,00.0,37.8,30.8,06.7,0000.0,0008.52,0003.47,0002.08
2022-04-09 16:59:00,,0817.5,5.01,0.00,29.0,28.1,00.0,37.8,30.8,06.9,0000.0,0008.89,0003.50,0002.05
